map of NDJ home
NDJ - Airport
Location
City:  N'Djamena, Chari-Baguirmi, Chad
ICAO:FTTJ
IATA:NDJ

Details
Type:Airport (Aerodrome, Airfield)
Use:Public/Civil, Military, International (customs port of entry)
Latitude:1208'01"N (12.133689)
Longitude:1502'02"E (15.034019)
Datum:WGS 1984
Elevation:968 ft (295 m)
Variation:1.36E (WMM2015v2 magnetic declination)
0.11 annual change
Runways:1
Longest:9186 × 148 ft (2800 × 45 m), paved

Time
Time Zone:UTC+1
Local Time:

Weather
METAR:FTTJ 041400Z 29007KT 290V050 CAVOK 36/M09 Q1007 NOSIG
TAF:FTTJ 041100Z 0412/0518 34006KT CAVOK
TEMPO 0416/0419 4000 DU
BECMG 0506/0509 34016KT 3000 BLDU

Related Locations
Nearby:
Farthest:MHX: 12151 mi / 19556 km
Manihiki Island (Manuhiki, Tapuahua, Humphrey Island), CK

Find:

   beyond  
but within

Other Information
Maps:
NOTAMs:
Links:
Sources:

  
  • flag of Chad
  

Sectional Chart

Flight Planning
at skyvector.com

Satellite Image

Google Maps Satellite view

 

Copyright © 2004-2019 Karl L. Swartz. All rights reserved.
The Great Circle Mapper name and logo are trademarks of the Great Circle Mapper.
All other trademarks mentioned herein belong to their respective owners.
Please see credits for attibutions and further copyright information.

  Follow gcmap on Facebook Follow gcmap on Twitter GCmap on LinkedIn

hCard Microformat

Geo Microformat